Jamestown, NY

4:28 AM EDT on May 23, 2017 (GMT -0400)
Chautauqua County-Jamestown

Weather History for KJHW - March, 2012

Change the Weather History Date:

Thursday, March 29, 2012

  Actual Average Record
Temperature  
Mean Temperature 36 °F -  
Max Temperature 39 °F 50 °F 77 °F (1989)
Min Temperature 33 °F 28 °F 3 °F (1982)
Degree Days  
Heating Degree Days 29    
Moisture  
Dew Point 28 °F    
Average Humidity 74    
Maximum Humidity 87    
Minimum Humidity 65    
Precipitation  
Precipitation 0.00 in - - ()
Sea Level Pressure  
Sea Level Pressure 29.95 in    
Wind  
Wind Speed 14 mph (NW)    
Max Wind Speed 21 mph    
Max Gust Speed 28 mph    
Visibility 10 miles    
Events      
Averages and records for this station are not official NWS values.
T = Trace of Precipitation, MM = Missing Value Source: NWS Daily Summary

Daily Weather History Graph

Daily Weather History Graph

Search for Another Location

Airport or City:

Trip Planner

Search our weather history database for the weather conditions in past years. The results will help you decide how hot, cold, wet, or windy it might be!

Date:

Astronomy

Mar. 29, 2012 Rise Set
Actual Time 7:03 AM EDT 7:39 PM EDT
Civil Twilight 6:35 AM EDT 8:08 PM EDT
Nautical Twilight 6:02 AM EDT 8:41 PM EDT
Astronomical Twilight 5:28 AM EDT 9:15 PM EDT
Moon 11:05 AM EDT (3/29) 1:35 AM EDT (3/29)
Length of Visible Light 13h 32m
Length of Day
12h 35m
Waxing Crescent, 39% of the Moon is Illuminated
Mar 29
Waxing Crescent
Mar 30
First Quarter
Apr 6
Full
Apr 13
Last Quarter
Apr 21
New

Hourly Weather History & Observations

Time (EDT) Temp. Windchill Dew Point Humidity Pressure Visibility Wind Dir Wind Speed Gust Speed Precip Events Conditions
12:15 AM 39.2 °F 29.6 °F 30.2 °F 70% 29.82 in 10.0 mi WNW 19.6 mph 26.5 mph N/A   Overcast
12:35 AM 39.2 °F 29.8 °F 32.0 °F 75% 29.82 in 10.0 mi WNW 18.4 mph 25.3 mph N/A   Overcast
12:55 AM 39.2 °F 29.3 °F 30.2 °F 70% 29.82 in 10.0 mi NW 20.7 mph 27.6 mph N/A   Overcast
1:35 AM 37.4 °F 28.2 °F 30.2 °F 75% 29.83 in 10.0 mi NW 16.1 mph 20.7 mph N/A   Overcast
1:55 AM 37.4 °F 29.3 °F 30.2 °F 75% 29.83 in 10.0 mi NW 12.7 mph 26.5 mph N/A   Overcast
2:15 AM 37.4 °F 28.9 °F 30.2 °F 75% 29.84 in 10.0 mi NW 13.8 mph 26.5 mph N/A   Overcast
2:35 AM 37.4 °F 29.3 °F 28.4 °F 70% 29.84 in 10.0 mi NW 12.7 mph 23.0 mph N/A   Overcast
2:55 AM 37.4 °F 27.8 °F 30.2 °F 75% 29.84 in 10.0 mi NW 17.3 mph 24.2 mph N/A   Overcast
3:15 AM 35.6 °F 25.2 °F 30.2 °F 81% 29.84 in 10.0 mi NW 18.4 mph 23.0 mph N/A   Overcast
3:35 AM 35.6 °F 25.9 °F 30.2 °F 81% 29.85 in 10.0 mi NW 16.1 mph 24.2 mph N/A   Overcast
3:55 AM 35.6 °F 26.2 °F 30.2 °F 81% 29.85 in 10.0 mi NW 15.0 mph 21.9 mph N/A   Overcast
4:15 AM 35.6 °F 26.6 °F 30.2 °F 81% 29.86 in 10.0 mi NW 13.8 mph 24.2 mph N/A   Overcast
4:35 AM 35.6 °F 25.9 °F 30.2 °F 81% 29.86 in 10.0 mi NW 16.1 mph 20.7 mph N/A   Overcast
4:55 AM 35.6 °F 26.2 °F 30.2 °F 81% 29.86 in 10.0 mi WNW 15.0 mph 21.9 mph N/A   Overcast
5:15 AM 35.6 °F 25.9 °F 30.2 °F 81% 29.87 in 10.0 mi NW 16.1 mph 19.6 mph N/A   Overcast
5:35 AM 35.6 °F 27.1 °F 30.2 °F 81% 29.87 in 10.0 mi NW 12.7 mph - N/A   Overcast
5:55 AM 35.6 °F 27.1 °F 30.2 °F 81% 29.89 in 7.0 mi NW 12.7 mph 17.3 mph N/A   Overcast
6:15 AM 35.6 °F 28.0 °F 30.2 °F 81% 29.89 in 9.0 mi NW 10.4 mph - N/A   Overcast
6:35 AM 35.6 °F 28.0 °F 30.2 °F 81% 29.90 in 10.0 mi NW 10.4 mph - N/A   Overcast
6:55 AM 35.6 °F 27.5 °F 30.2 °F 81% 29.91 in 5.0 mi NNW 11.5 mph - N/A   Overcast
7:15 AM 33.8 °F 25.8 °F 30.2 °F 87% 29.91 in 4.0 mi NNW 10.4 mph - N/A   Overcast
7:35 AM 33.8 °F 25.3 °F 30.2 °F 87% 29.92 in 5.0 mi NW 11.5 mph - N/A   Overcast
7:55 AM 33.8 °F 24.8 °F 30.2 °F 87% 29.93 in 5.0 mi NW 12.7 mph 17.3 mph N/A   Overcast
8:15 AM 33.8 °F 25.8 °F 30.2 °F 87% 29.94 in 7.0 mi NW 10.4 mph 18.4 mph N/A   Overcast
8:35 AM 33.8 °F 26.4 °F 30.2 °F 87% 29.95 in 10.0 mi NW 9.2 mph - N/A   Overcast
8:55 AM 35.6 °F 27.5 °F 28.4 °F 75% 29.96 in 10.0 mi NW 11.5 mph 18.4 mph N/A   Overcast
9:15 AM 35.6 °F 27.5 °F 28.4 °F 75% 29.97 in 10.0 mi NW 11.5 mph 20.7 mph N/A   Overcast
9:35 AM 33.8 °F 25.8 °F 28.4 °F 81% 29.97 in 10.0 mi NW 10.4 mph - N/A   Overcast
9:55 AM 35.6 °F 29.2 °F 26.6 °F 70% 29.98 in 10.0 mi NNW 8.1 mph 19.6 mph N/A   Overcast
10:15 AM 33.8 °F 24.3 °F 26.6 °F 75% 29.99 in 10.0 mi NNW 13.8 mph 18.4 mph N/A   Overcast
10:35 AM 33.8 °F 25.3 °F 26.6 °F 75% 29.99 in 10.0 mi NNW 11.5 mph - N/A   Overcast
11:15 AM 33.8 °F 25.3 °F 26.6 °F 75% 30.00 in 10.0 mi NNW 11.5 mph 18.4 mph N/A   Overcast
11:35 AM 35.6 °F 27.1 °F 26.6 °F 70% 30.01 in 10.0 mi NNW 12.7 mph - N/A   Overcast
11:55 AM 35.6 °F 28.0 °F 24.8 °F 65% 30.01 in 10.0 mi North 10.4 mph 17.3 mph N/A   Overcast
12:15 PM 35.6 °F 28.6 °F 26.6 °F 70% 30.01 in 10.0 mi NW 9.2 mph 17.3 mph N/A   Overcast
12:35 PM 35.6 °F 27.5 °F 24.8 °F 65% 30.02 in 10.0 mi NNW 11.5 mph - N/A   Overcast
12:55 PM 35.6 °F 28.0 °F 24.8 °F 65% 30.02 in 10.0 mi NW 10.4 mph - N/A   Overcast
1:15 PM 35.6 °F 28.0 °F 24.8 °F 65% 30.03 in 10.0 mi NW 10.4 mph - N/A   Overcast
1:35 PM 35.6 °F 27.5 °F 24.8 °F 65% 30.03 in 10.0 mi WNW 11.5 mph - N/A   Overcast
1:55 PM 35.6 °F 25.9 °F 26.6 °F 70% 30.03 in 10.0 mi WNW 16.1 mph - N/A   Overcast
2:15 PM 35.6 °F 26.6 °F 26.6 °F 70% 30.03 in 10.0 mi NW 13.8 mph 18.4 mph N/A   Overcast
2:35 PM 35.6 °F 28.0 °F 24.8 °F 65% 30.03 in 10.0 mi NNW 10.4 mph - N/A   Overcast
2:55 PM 35.6 °F 27.1 °F 24.8 °F 65% 30.02 in 10.0 mi NNW 12.7 mph - N/A   Overcast
3:15 PM 35.6 °F 27.1 °F 24.8 °F 65% 30.03 in 10.0 mi NW 12.7 mph - N/A   Overcast
3:35 PM 35.6 °F 26.2 °F 26.6 °F 70% 30.03 in 10.0 mi NW 15.0 mph - N/A   Overcast
3:55 PM 35.6 °F 27.5 °F 26.6 °F 70% 30.03 in 10.0 mi NW 11.5 mph - N/A   Overcast
4:15 PM 35.6 °F 27.1 °F 24.8 °F 65% 30.03 in 10.0 mi WNW 12.7 mph - N/A   Overcast
4:35 PM 35.6 °F 27.1 °F 24.8 °F 65% 30.03 in 10.0 mi NW 12.7 mph - N/A   Overcast
4:55 PM 35.6 °F 27.5 °F 24.8 °F 65% 30.03 in 10.0 mi NNW 11.5 mph - N/A   Overcast
5:15 PM 35.6 °F 28.6 °F 24.8 °F 65% 30.03 in 10.0 mi NNW 9.2 mph - N/A   Overcast
5:35 PM 35.6 °F 28.6 °F 24.8 °F 65% 30.03 in 10.0 mi North 9.2 mph - N/A   Overcast
5:55 PM 33.8 °F 24.8 °F 24.8 °F 70% 30.03 in 10.0 mi NNW 12.7 mph - N/A   Overcast
6:15 PM 33.8 °F 25.3 °F 24.8 °F 70% 30.03 in 10.0 mi NNW 11.5 mph - N/A   Overcast
6:35 PM 33.8 °F 27.7 °F 24.8 °F 70% 30.04 in 10.0 mi NNW 6.9 mph - N/A   Overcast
6:55 PM 33.8 °F 25.8 °F 24.8 °F 70% 30.04 in 10.0 mi NNW 10.4 mph - N/A   Overcast
7:15 PM 33.8 °F 26.4 °F 23.0 °F 65% 30.04 in 10.0 mi North 9.2 mph - N/A   Overcast
7:35 PM 33.8 °F 27.7 °F 24.8 °F 70% 30.04 in 10.0 mi NNW 6.9 mph - N/A   Overcast
7:55 PM 33.8 °F 27.7 °F 24.8 °F 70% 30.05 in 10.0 mi NNW 6.9 mph - N/A   Overcast
8:15 PM 33.8 °F 28.6 °F 24.8 °F 70% 30.06 in 10.0 mi NNW 5.8 mph - N/A   Overcast
8:35 PM 33.8 °F 28.6 °F 24.8 °F 70% 30.06 in 10.0 mi NNW 5.8 mph - N/A   Overcast
8:55 PM 33.8 °F 28.6 °F 23.0 °F 65% 30.07 in 10.0 mi NNW 5.8 mph - N/A   Overcast
9:15 PM 33.8 °F 29.6 °F 23.0 °F 65% 30.07 in 10.0 mi NW 4.6 mph - N/A   Overcast
9:35 PM 33.8 °F 30.8 °F 24.8 °F 70% 30.08 in 10.0 mi NNW 3.5 mph - N/A   Overcast
9:55 PM 33.8 °F 29.6 °F 24.8 °F 70% 30.09 in 10.0 mi North 4.6 mph - N/A   Overcast
10:15 PM 33.8 °F 28.6 °F 24.8 °F 70% 30.09 in 10.0 mi NNW 5.8 mph - N/A   Overcast
10:35 PM 33.8 °F 29.6 °F 24.8 °F 70% 30.08 in 10.0 mi NNW 4.6 mph - N/A   Overcast
10:55 PM 33.8 °F 29.6 °F 24.8 °F 70% 30.08 in 10.0 mi North 4.6 mph - N/A   Overcast
11:15 PM 33.8 °F 29.6 °F 24.8 °F 70% 30.08 in 10.0 mi North 4.6 mph - N/A   Overcast
11:35 PM 33.8 °F 30.8 °F 24.8 °F 70% 30.08 in 10.0 mi North 3.5 mph - N/A   Overcast
11:55 PM 33.8 °F 29.6 °F 24.8 °F 70% 30.07 in 10.0 mi North 4.6 mph - N/A   Overcast